Tracking 18852 objects as of 22-Nov-2017
HD Live streaming from Space Station
objects crossing your sky now

FENGYUN 1C DEB

Track FENGYUN 1C DEB now!
10-day predictions


NORAD ID: 31036
Int'l Code: 1999-025BEE
Perigee: 643.3 km
Apogee: 852.7 km
Inclination: 98.9 °
Period: 99.6 minutes
Semi major axis: 7119 km
RCS: 0.0103 m2 (small)
Launch date: May 10, 1999
Source: People's Republic of China (PRC)
Launch site: Taiyaun Space Center, China (TSC)

Note: This is SATELLITE DEBRIS
aabbcc
Your satellite tracking list
Your tracking list is empty




NASA's NSSDC Master Catalog

Two Line Element Set (TLE):
1 31036U 99025BEE 17326.50497775 +.00000149 +00000-0 +50888-4 0  9998
2 31036 098.9181 224.3037 0147054 050.2917 073.1274 14.45347567147784
Source of the keplerian elements: AFSPC